Regional Weather Roundup
Issued by NWS Newport/Morehead, NC

Current Version | Previous Version | Text Only | Print | Product List | Glossary On
Versions: 1 2 3 4 5 6 7 8 9 10 11 12 13 14 15 16 17 18 19 20 21 22 23 24 25 26 27 28 29 30 31 32 33 34 35 36 37 38 39 40 41 42 43 44 45 46
000 ASUS42 KMHX 222113 RWRMHX WEATHER ROUNDUP FOR EASTERN NORTH CAROLINA NATIONAL WEATHER SERVICE NEWPORT/MOREHEAD CITY NC 500 PM EDT SUN APR 22 2018 NOTE: "FAIR" INDICATES FEW OR NO CLOUDS BELOW 12,000 FEET WITH NO SIGNIFICANT WEATHER AND/OR OBSTRUCTIONS TO VISIBILITY NCZ015>017-031-032-045>047-102-103-222200- NORTH COAST CITY SKY/WX TMP DP RH WIND PRES REMARKS EDENTON FAIR 64 41 43 E13G21 30.36S ELIZABETH CITY FAIR 61 37 41 E12 30.37F KITTY HAWK FAIR 55 38 52 E5 30.38S MANTEO FAIR 56 37 49 E10 30.39S $$ NCZ045>047-081-094-103-104-222200- CENTRAL COAST CITY SKY/WX TMP DP RH WIND PRES REMARKS FRISCO FAIR 61 45 55 NE9G18 30.36F $$ NCZ095-097-098-100-101-222200- SOUTHERN COAST CITY SKY/WX TMP DP RH WIND PRES REMARKS BEAUFORT FAIR 65 39 38 E13 30.33S CEDAR ISLAND NOT AVBL JACKSONVILLE FAIR 66 35 31 SE12 30.30F PINEY ISLAND NOT AVBL WILMINGTON FAIR 64 43 46 E10 30.31S $$ NCZ011>013-027>030-043-044-078>080-089-090>093-098-222200- COASTAL PLAIN CITY SKY/WX TMP DP RH WIND PRES REMARKS AHOSKIE FAIR 67 40 38 SE6 30.32S CLINTON FAIR 71 46 41 E3 30.28S ELIZABETHTOWN CLOUDY 68 48 49 MISG 30.29R GOLDSBORO FAIR 70 40 33 SE7 30.27F GREENVILLE FAIR 70 37 30 SE9 30.32S HAVELOCK NOT AVBL KENANSVILLE FAIR 70 43 37 E6 30.29S KINSTON FAIR 70 37 30 E8 30.30F NEW BERN FAIR 66 35 31 E10G17 30.33F RICHLANDS FAIR 67 38 34 SE12 30.30F ROCKY MOUNT FAIR 69 39 33 MISG 30.30F WASHINGTON FAIR 67 37 33 E9 30.32F WHITEVILLE FAIR 68 50 51 E9 30.28R $$ AMZ130-135-150-152-154-156-158-170-250-252-270-ANZ085-086-088-633-658-670-222200- MARINE OBSERVATIONS STATION/POSITION TIME TEMP WIND PRES WAVE SWELL AIR SEA DIR/SP/G HT/PER HT/PER (UTC) (F) (DEG/KT/KT) (MB) (FT/S) (FT/S) CHESAPEAKE LIGHT NOT AVBL 64 E VA BEACH 2050 51 51 40/ 4/ 6 1029.8 1/ 8 2/ 8 DUCK 2048 53 54 70/ 11/ 12 1028.5 2 E DUCK 2100 54 N/A 2/15 OREGON INLET 2036 54 58 50/ 11/ 13 1028.5 13E OREGON INLT 2048 51 N/A 2/13 2/13 HATTERAS CG 2048 57 62 60/ 13/ 16 1027.8 DIAMOND BUOY 2100 61 74 30/ 16/ 21 1028.1 CAPE LOOKOUT 2100 60/ 15/ 17 1027.5 BEAUFORT LAB 2048 63 63 80/ 11/ 15 1027.2 30 SE NEW RVR IN 2008 63 65 80/ 14/ 17 1026.8 30 SE NEW RVR IN 2100 65 N/A 4/ 5 27 SE WRIGHTSVLE 2008 64 65 80/ 16/ 21 1026.4 5 SE WRIGHTSVLE 2008 62 61 90/ 12/ 16 1026.3 225 S CAPE HAT 2100 67 72 80/ 14/ 17 1025.0 41 SE CHARLESTON 2100 69 67 110/ 14/ 17 1023.7 $$

USA.gov is the U.S. government's official web portal to all federal, state and local government web resources and services.